| time (UTC) | temp F | wind direction | speed MPH | gust MPH | rain 1hr in | rain 24hr in | rain mn in | humidity % | barometer mb |
| 20260507042957 | 58 | 315 | 0.0 | 0.0 | 0.00 | 0.00 | 0.00 | 59 | 1011.3 |
| 20260507041957 | 58 | 270 | 0.0 | 1.0 | 0.00 | 0.00 | 0.00 | 60 | 1011.2 |
| 20260507040957 | 57 | 292 | 0.0 | 0.0 | 0.00 | 0.00 | 0.00 | 59 | 1010.9 |
| 20260507035957 | 58 | 337 | 0.0 | 5.0 | 0.00 | 0.00 | 0.00 | 59 | 1011.0 |
| 20260507034957 | 58 | 315 | 0.0 | 0.0 | 0.00 | 0.00 | 0.00 | 59 | 1010.9 |
| 20260507033957 | 58 | 270 | 0.0 | 0.0 | 0.00 | 0.00 | 0.00 | 59 | 1010.9 |
| 20260507032957 | 58 | 225 | 0.0 | 0.0 | 0.00 | 0.00 | 0.00 | 58 | 1010.9 |
| 20260507031957 | 58 | 270 | 0.0 | 2.0 | 0.00 | 0.00 | 0.00 | 58 | 1010.8 |
| 20260507030957 | 58 | 292 | 0.0 | 0.0 | 0.00 | 0.00 | 0.00 | 58 | 1010.7 |
| 20260507025957 | 58 | 292 | 2.0 | 2.0 | 0.00 | 0.00 | 0.00 | 59 | 1010.7 |
| 20260507024957 | 58 | 292 | 0.0 | 0.0 | 0.00 | 0.00 | 0.00 | 59 | 1010.5 |
| 20260507023957 | 59 | 292 | 0.0 | 0.0 | 0.00 | 0.00 | 0.00 | 59 | 1010.5 |
| 20260507022957 | 59 | 315 | 6.0 | 6.0 | 0.00 | 0.00 | 0.00 | 60 | 1010.5 |
| 20260507021957 | 59 | 315 | 0.0 | 0.0 | 0.00 | 0.00 | 0.00 | 60 | 1010.7 |
| 20260507020957 | 59 | 270 | 0.0 | 1.0 | 0.00 | 0.00 | 0.00 | 60 | 1010.5 |
| 20260507015957 | 59 | 292 | 0.0 | 0.0 | 0.00 | 0.00 | 0.00 | 60 | 1010.4 |
| 20260507014957 | 59 | 292 | 0.0 | 0.0 | 0.00 | 0.00 | 0.00 | 61 | 1010.2 |
| 20260507013958 | 59 | 337 | 0.0 | 4.0 | 0.00 | 0.00 | 0.00 | 61 | 1010.3 |
| 20260507012957 | 59 | 315 | 0.0 | 0.0 | 0.00 | 0.00 | 0.00 | 61 | 1010.2 |
| 20260507011957 | 60 | 292 | 0.0 | 0.0 | 0.00 | 0.00 | 0.00 | 61 | 1010.1 |
| 20260507010957 | 60 | 337 | 0.0 | 3.0 | 0.00 | 0.00 | 0.00 | 61 | 1010.0 |
| 20260507005957 | 60 | 292 | 0.0 | 3.0 | 0.00 | 0.00 | 0.00 | 61 | 1009.9 |
| 20260507004957 | 60 | 225 | 0.0 | 0.0 | 0.00 | 0.00 | 0.00 | 61 | 1010.0 |
| 20260507003957 | 60 | 315 | 0.0 | 1.0 | 0.00 | 0.00 | 0.00 | 61 | 1009.8 |
| 20260507002957 | 60 | 337 | 1.0 | 3.0 | 0.00 | 0.00 | 0.00 | 61 | 1009.6 |
| 20260507001957 | 60 | 315 | 5.0 | 5.0 | 0.00 | 0.00 | 0.00 | 61 | 1009.6 |
| 20260507000957 | 60 | 112 | 0.0 | 4.0 | 0.00 | 0.00 | 0.00 | 61 | 1009.6 |
| 20260506235957 | 61 | 315 | 0.0 | 2.0 | 0.00 | 0.00 | 0.00 | 61 | 1009.5 |
| 20260506234957 | 61 | 202 | 0.0 | 0.0 | 0.00 | 0.00 | 0.00 | 61 | 1009.4 |
| 20260506233957 | 61 | 315 | 2.0 | 2.0 | 0.00 | 0.00 | 0.00 | 62 | 1009.2 |
| 20260506232957 | 61 | 292 | 0.0 | 0.0 | 0.00 | 0.00 | 0.00 | 63 | 1009.3 |
| 20260506231957 | 61 | 270 | 1.0 | 1.0 | 0.00 | 0.00 | 0.00 | 63 | 1009.2 |
| 20260506230957 | 61 | 292 | 0.0 | 2.0 | 0.00 | 0.00 | 0.00 | 63 | 1009.1 |
| 20260506225957 | 61 | 315 | 2.0 | 2.0 | 0.00 | 0.00 | 0.00 | 62 | 1009.1 |
| 20260506224957 | 62 | 292 | 0.0 | 1.0 | 0.00 | 0.00 | 0.00 | 62 | 1008.9 |
| 20260506223958 | 62 | 315 | 4.0 | 4.0 | 0.00 | 0.00 | 0.00 | 60 | 1008.5 |
| 20260506222958 | 62 | 270 | 0.0 | 0.0 | 0.00 | 0.00 | 0.00 | 59 | 1008.4 |
| 20260506221958 | 62 | 315 | 0.0 | 2.0 | 0.00 | 0.00 | 0.00 | 59 | 1008.1 |
| 20260506220958 | 62 | 315 | 2.0 | 2.0 | 0.00 | 0.00 | 0.00 | 58 | 1007.9 |
| 20260506215958 | 62 | 315 | 1.0 | 1.0 | 0.00 | 0.00 | 0.00 | 58 | 1007.8 |
| 20260506214958 | 62 | 180 | 0.0 | 0.0 | 0.00 | 0.00 | 0.00 | 57 | 1007.5 |
| 20260506213958 | 63 | 180 | 0.0 | 0.0 | 0.00 | 0.00 | 0.00 | 57 | 1007.5 |
| 20260506212958 | 63 | 180 | 0.0 | 0.0 | 0.00 | 0.00 | 0.00 | 56 | 1007.2 |
| 20260506211958 | 64 | 180 | 0.0 | 0.0 | 0.00 | 0.00 | 0.00 | 56 | 1007.0 |
| 20260506210958 | 64 | 180 | 0.0 | 0.0 | 0.00 | 0.00 | 0.00 | 55 | 1006.8 |
| 20260506205958 | 65 | 180 | 0.0 | 0.0 | 0.00 | 0.00 | 0.00 | 54 | 1006.4 |
| 20260506204958 | 66 | 180 | 0.0 | 0.0 | 0.00 | 0.00 | 0.00 | 53 | 1006.4 |
| 20260506203958 | 66 | 180 | 0.0 | 0.0 | 0.00 | 0.00 | 0.00 | 53 | 1006.4 |
| 20260506202958 | 66 | 180 | 0.0 | 0.0 | 0.00 | 0.00 | 0.00 | 52 | 1006.3 |
| 20260506201958 | 67 | 180 | 0.0 | 0.0 | 0.00 | 0.00 | 0.00 | 52 | 1006.2 |
| 20260506200958 | 67 | 180 | 0.0 | 0.0 | 0.00 | 0.00 | 0.00 | 51 | 1006.2 |
| 20260506195958 | 68 | 180 | 0.0 | 0.0 | 0.00 | 0.00 | 0.00 | 51 | 1006.1 |
| 20260506194958 | 68 | 180 | 0.0 | 0.0 | 0.00 | 0.00 | 0.00 | 50 | 1005.9 |
| 20260506193958 | 68 | 180 | 0.0 | 0.0 | 0.00 | 0.00 | 0.00 | 50 | 1005.7 |
| 20260506192958 | 68 | 180 | 0.0 | 0.0 | 0.00 | 0.00 | 0.00 | 49 | 1005.7 |
| 20260506191958 | 68 | 180 | 0.0 | 0.0 | 0.00 | 0.00 | 0.00 | 49 | 1005.6 |
| 20260506190958 | 69 | 180 | 0.0 | 0.0 | 0.00 | 0.00 | 0.00 | 48 | 1005.6 |
| 20260506185958 | 69 | 180 | 0.0 | 0.0 | 0.00 | 0.00 | 0.00 | 48 | 1005.5 |
| 20260506184958 | 69 | 180 | 0.0 | 1.0 | 0.00 | 0.00 | 0.00 | 47 | 1005.2 |
| 20260506183958 | 69 | 180 | 2.0 | 2.0 | 0.00 | 0.00 | 0.00 | 47 | 1005.1 |
| 20260506182958 | 70 | 180 | 0.0 | 0.0 | 0.00 | 0.00 | 0.00 | 46 | 1005.1 |
| 20260506181958 | 70 | 202 | 0.0 | 0.0 | 0.00 | 0.00 | 0.00 | 46 | 1005.0 |
| 20260506180958 | 70 | 202 | 0.0 | 0.0 | 0.00 | 0.00 | 0.00 | 45 | 1004.7 |
| 20260506175958 | 71 | 180 | 0.0 | 0.0 | 0.00 | 0.00 | 0.00 | 45 | 1004.7 |
| 20260506174958 | 71 | 180 | 0.0 | 0.0 | 0.00 | 0.00 | 0.00 | 45 | 1004.7 |
| 20260506173958 | 71 | 180 | 0.0 | 0.0 | 0.00 | 0.00 | 0.00 | 45 | 1004.6 |
| 20260506172958 | 72 | 315 | 0.0 | 0.0 | 0.00 | 0.00 | 0.00 | 44 | 1004.7 |
| 20260506171958 | 72 | 247 | 0.0 | 0.0 | 0.00 | 0.00 | 0.00 | 43 | 1004.7 |
| 20260506170958 | 73 | 337 | 2.0 | 2.0 | 0.00 | 0.00 | 0.00 | 43 | 1004.6 |
| 20260506165958 | 73 | 180 | 2.0 | 2.0 | 0.00 | 0.00 | 0.00 | 42 | 1004.7 |
| 20260506164958 | 73 | 270 | 0.0 | 0.0 | 0.00 | 0.00 | 0.00 | 42 | 1004.8 |
| 20260506163958 | 74 | 202 | 1.0 | 1.0 | 0.00 | 0.00 | 0.00 | 42 | 1005.0 |
| 20260506162958 | 74 | 180 | 0.0 | 0.0 | 0.00 | 0.00 | 0.00 | 42 | 1004.9 |
| 20260506161958 | 75 | 180 | 0.0 | 0.0 | 0.00 | 0.00 | 0.00 | 41 | 1005.0 |
| 20260506160958 | 76 | 180 | 2.0 | 2.0 | 0.00 | 0.00 | 0.00 | 40 | 1005.1 |
| 20260506155958 | 77 | 247 | 0.0 | 2.0 | 0.00 | 0.00 | 0.00 | 39 | 1005.1 |
| 20260506154958 | 77 | 315 | 0.0 | 0.0 | 0.00 | 0.00 | 0.00 | 39 | 1005.1 |
| 20260506153958 | 78 | 337 | 0.0 | 0.0 | 0.00 | 0.00 | 0.00 | 38 | 1005.1 |
| 20260506152958 | 78 | 225 | 1.0 | 1.0 | 0.00 | 0.00 | 0.00 | 38 | 1005.1 |
| 20260506151958 | 78 | 157 | 2.0 | 2.0 | 0.00 | 0.00 | 0.00 | 37 | 1005.1 |
| 20260506150958 | 78 | 247 | 0.0 | 1.0 | 0.00 | 0.00 | 0.00 | 37 | 1005.2 |
| 20260506145958 | 79 | 315 | 0.0 | 1.0 | 0.00 | 0.00 | 0.00 | 37 | 1005.1 |
| 20260506144958 | 79 | 225 | 0.0 | 0.0 | 0.00 | 0.00 | 0.00 | 36 | 1005.1 |
| 20260506143958 | 80 | 180 | 1.0 | 2.0 | 0.00 | 0.00 | 0.00 | 36 | 1005.0 |
| 20260506142958 | 80 | 270 | 0.0 | 0.0 | 0.00 | 0.00 | 0.00 | 36 | 1005.1 |
| 20260506141958 | 80 | 180 | 0.0 | 1.0 | 0.00 | 0.00 | 0.00 | 36 | 1005.1 |
| 20260506140958 | 79 | 157 | 0.0 | 2.0 | 0.00 | 0.00 | 0.00 | 37 | 1005.2 |
| 20260506135958 | 79 | 157 | 0.0 | 0.0 | 0.00 | 0.00 | 0.00 | 36 | 1005.2 |
| 20260506134958 | 80 | 135 | 0.0 | 2.0 | 0.00 | 0.00 | 0.00 | 36 | 1005.3 |
| 20260506133958 | 80 | 180 | 1.0 | 1.0 | 0.00 | 0.00 | 0.00 | 35 | 1005.5 |
| 20260506132958 | 79 | 292 | 2.0 | 2.0 | 0.00 | 0.00 | 0.00 | 37 | 1005.6 |
| 20260506131958 | 78 | 225 | 0.0 | 0.0 | 0.00 | 0.00 | 0.00 | 37 | 1005.6 |
| 20260506130958 | 76 | 337 | 0.0 | 0.0 | 0.00 | 0.00 | 0.00 | 38 | 1005.7 |
| 20260506125958 | 75 | 292 | 0.0 | 0.0 | 0.00 | 0.00 | 0.00 | 39 | 1005.9 |
| 20260506124958 | 75 | 157 | 0.0 | 0.0 | 0.00 | 0.00 | 0.00 | 39 | 1005.9 |
| 20260506123958 | 75 | 157 | 0.0 | 2.0 | 0.00 | 0.00 | 0.00 | 39 | 1006.1 |
| 20260506122958 | 75 | 157 | 0.0 | 0.0 | 0.00 | 0.00 | 0.00 | 39 | 1006.4 |
| 20260506121958 | 75 | 180 | 1.0 | 1.0 | 0.00 | 0.00 | 0.00 | 40 | 1006.5 |
| 20260506120958 | 75 | 180 | 0.0 | 1.0 | 0.00 | 0.00 | 0.00 | 40 | 1006.8 |
| 20260506115958 | 75 | 180 | 3.0 | 3.0 | 0.00 | 0.00 | 0.00 | 39 | 1006.9 |
| 20260506114958 | 76 | 180 | 4.0 | 4.0 | 0.00 | 0.00 | 0.00 | 39 | 1006.9 |
| 20260506113958 | 77 | 180 | 0.0 | 4.0 | 0.00 | 0.00 | 0.00 | 39 | 1007.0 |
| 20260506112959 | 78 | 180 | 2.0 | 2.0 | 0.00 | 0.00 | 0.00 | 39 | 1007.2 |
| 20260506111958 | 78 | 157 | 4.0 | 4.0 | 0.00 | 0.00 | 0.00 | 40 | 1007.3 |
| 20260506110959 | 78 | 157 | 4.0 | 4.0 | 0.00 | 0.00 | 0.00 | 41 | 1007.4 |
| 20260506105959 | 77 | 157 | 0.0 | 2.0 | 0.00 | 0.00 | 0.00 | 41 | 1007.5 |
| 20260506104959 | 77 | 202 | 0.0 | 2.0 | 0.00 | 0.00 | 0.00 | 42 | 1007.7 |
| 20260506103959 | 76 | 0 | 0.0 | 0.0 | 0.00 | 0.00 | 0.00 | 42 | 1008.0 |
| 20260506102959 | 75 | 180 | 2.0 | 3.0 | 0.00 | 0.00 | 0.00 | 42 | 1008.1 |
| 20260506101959 | 75 | 292 | 0.0 | 1.0 | 0.00 | 0.00 | 0.00 | 42 | 1008.1 |
| 20260506100959 | 76 | 157 | 0.0 | 2.0 | 0.00 | 0.00 | 0.00 | 42 | 1008.2 |
| 20260506095959 | 75 | 315 | 0.0 | 1.0 | 0.00 | 0.00 | 0.00 | 43 | 1008.3 |
| 20260506094959 | 75 | 247 | 3.0 | 3.0 | 0.00 | 0.00 | 0.00 | 42 | 1008.3 |
| 20260506093959 | 75 | 202 | 0.0 | 0.0 | 0.00 | 0.00 | 0.00 | 42 | 1008.5 |
| 20260506092959 | 75 | 157 | 2.0 | 2.0 | 0.00 | 0.00 | 0.00 | 43 | 1008.5 |
| 20260506091959 | 74 | 180 | 0.0 | 0.0 | 0.00 | 0.00 | 0.00 | 44 | 1008.7 |
| 20260506090959 | 74 | 337 | 1.0 | 1.0 | 0.00 | 0.00 | 0.00 | 44 | 1008.7 |
| 20260506085959 | 74 | 157 | 0.0 | 6.0 | 0.00 | 0.00 | 0.00 | 44 | 1008.6 |
| 20260506084959 | 74 | 315 | 0.0 | 1.0 | 0.00 | 0.00 | 0.00 | 43 | 1008.8 |
| 20260506083959 | 74 | 270 | 0.0 | 0.0 | 0.00 | 0.00 | 0.00 | 45 | 1008.7 |
| 20260506082959 | 73 | 180 | 0.0 | 0.0 | 0.00 | 0.00 | 0.00 | 47 | 1008.7 |
| 20260506081959 | 73 | 157 | 0.0 | 2.0 | 0.00 | 0.00 | 0.00 | 46 | 1008.7 |
| 20260506080959 | 72 | 157 | 0.0 | 0.0 | 0.00 | 0.00 | 0.00 | 47 | 1008.9 |
| 20260506072959 | 70 | 247 | 0.0 | 0.0 | 0.00 | 0.00 | 0.00 | 52 | 1009.1 |
| 20260506071959 | 69 | 247 | 0.0 | 0.0 | 0.00 | 0.00 | 0.00 | 53 | 1009.1 |
| 20260506070959 | 68 | 292 | 0.0 | 0.0 | 0.00 | 0.00 | 0.00 | 54 | 1009.1 |
| 20260506061959 | 65 | 315 | 0.0 | 0.0 | 0.00 | 0.00 | 0.00 | 59 | 1009.5 |
| 20260506060959 | 64 | 315 | 0.0 | 0.0 | 0.00 | 0.00 | 0.00 | 62 | 1009.5 |
| 20260506050959 | 61 | 315 | 0.0 | 0.0 | 0.00 | 0.00 | 0.00 | 65 | 1009.5 |
| 20260506044959 | 61 | 315 | 0.0 | 0.0 | 0.00 | 0.00 | 0.00 | 64 | 1009.5 |
| 20260506043959 | 61 | 315 | 0.0 | 0.0 | 0.00 | 0.00 | 0.00 | 64 | 1009.4 |